Paducah, KY

5:50 AM CDT on May 29, 2017 (GMT -0500)
Barkley Regional

Weather History for KPAH - November, 2013

Change the Weather History Date:

Monday, November 4, 2013

  Actual Average Record
Temperature  
Mean Temperature 54 °F 53 °F  
Max Temperature 62 °F 64 °F 82 °F (1987)
Min Temperature 45 °F 42 °F 16 °F (1991)
Degree Days  
Heating Degree Days 11 12  
Month to date heating degree days 54 48  
Since 1 July heating degree days 263 315  
Cooling Degree Days 0 0  
Month to date cooling degree days 0 0  
Year to date cooling degree days 1478 1538  
Growing Degree Days 4 (Base 50)    
Moisture  
Dew Point 42 °F    
Average Humidity 70    
Maximum Humidity 96    
Minimum Humidity 43    
Precipitation  
Precipitation T in 0.12 in 1.85 in (1988)
Month to date precipitation T 0.50  
Year to date precipitation 49.93 40.69  
Snow  
Snow 0.00 in 0.00 in T in (1951)
Month to date snowfall 0.0 0.0  
Since 1 July snowfall 0.0 0.1  
Since 1 September snowfall 0.0 0.1  
Snow Depth 0.00 in    
Sea Level Pressure  
Sea Level Pressure 30.25 in    
Wind  
Wind Speed 5 mph (SSE)    
Max Wind Speed 17 mph    
Max Gust Speed 23 mph    
Visibility 10 miles    
Events Rain    
T = Trace of Precipitation, MM = Missing Value Source: NWS Daily Summary

Daily Weather History Graph

Daily Weather History Graph

Search for Another Location

Airport or City:

Trip Planner

Search our weather history database for the weather conditions in past years. The results will help you decide how hot, cold, wet, or windy it might be!

Date:

Astronomy

Nov. 04, 2013 Rise Set
Actual Time 6:22 AM CST 4:54 PM CST
Civil Twilight 5:55 AM CST 5:21 PM CST
Nautical Twilight 5:24 AM CST 5:52 PM CST
Astronomical Twilight 4:54 AM CST 6:22 PM CST
Moon 7:31 AM CST (11/4) 6:00 PM CST (11/4)
Length of Visible Light 11h 25m
Length of Day
10h 31m
New Moon, 2% of the Moon is Illuminated
Nov 4
New Moon
Nov 9
First Quarter
Nov 17
Full
Nov 25
Last Quarter
Dec 2
New

Hourly Weather History & Observations

Time (CST) Temp. Windchill Dew Point Humidity Pressure Visibility Wind Dir Wind Speed Gust Speed Precip Events Conditions
12:53 AM 46.0 °F 43.9 °F 37.0 °F 71% 30.24 in 10.0 mi SE 4.6 mph - N/A   Clear
1:53 AM 46.0 °F 43.9 °F 37.0 °F 71% 30.24 in 10.0 mi SE 4.6 mph - N/A   Clear
2:53 AM 46.0 °F 42.5 °F 37.0 °F 71% 30.22 in 10.0 mi SSE 6.9 mph - N/A   Clear
3:53 AM 46.9 °F - 37.9 °F 71% 30.22 in 10.0 mi SSE 6.9 mph - N/A   Clear
4:53 AM 46.0 °F 43.1 °F 37.9 °F 73% 30.23 in 10.0 mi SE 5.8 mph - N/A   Clear
5:53 AM 46.9 °F - 37.9 °F 71% 30.24 in 10.0 mi SE 6.9 mph - N/A   Clear
6:53 AM 48.0 °F - 37.9 °F 68% 30.25 in 10.0 mi SSE 9.2 mph - N/A   Clear
7:53 AM 50.0 °F - 37.9 °F 63% 30.28 in 10.0 mi South 5.8 mph - N/A   Clear
8:53 AM 55.0 °F - 39.0 °F 55% 30.30 in 10.0 mi South 6.9 mph - N/A   Clear
9:53 AM 57.0 °F - 39.0 °F 51% 30.26 in 10.0 mi South 11.5 mph 18.4 mph N/A   Clear
10:53 AM 59.0 °F - 39.9 °F 49% 30.27 in 10.0 mi South 12.7 mph 17.3 mph N/A   Clear
11:53 AM 61.0 °F - 39.9 °F 46% 30.25 in 10.0 mi South 10.4 mph 16.1 mph N/A   Clear
12:53 PM 61.0 °F - 41.0 °F 48% 30.24 in 10.0 mi South 5.8 mph - N/A   Clear
1:53 PM 62.1 °F - 39.9 °F 44% 30.23 in 10.0 mi South 8.1 mph 17.3 mph N/A   Partly Cloudy
2:53 PM 61.0 °F - 41.0 °F 48% 30.23 in 10.0 mi Calm Calm - N/A   Overcast
3:53 PM 57.0 °F - 46.0 °F 67% 30.25 in 9.0 mi Calm Calm - 0.00 in Rain Light Rain
4:53 PM 54.0 °F - 48.0 °F 80% 30.25 in 10.0 mi Calm Calm - 0.00 in   Overcast
5:53 PM 53.1 °F - 48.9 °F 86% 30.26 in 10.0 mi Calm Calm - 0.00 in Rain Light Rain
6:53 PM 53.1 °F - 50.0 °F 89% 30.27 in 6.0 mi Calm Calm - 0.00 in   Overcast
7:53 PM 52.0 °F - 50.0 °F 93% 30.28 in 7.0 mi Calm Calm - N/A   Mostly Cloudy
8:53 PM 53.1 °F - 48.9 °F 86% 30.27 in 10.0 mi SE 3.5 mph - N/A   Overcast
9:53 PM 53.1 °F - 48.0 °F 83% 30.28 in 10.0 mi Calm Calm - N/A   Clear
10:53 PM 53.1 °F - 46.9 °F 80% 30.27 in 10.0 mi SSE 4.6 mph - N/A   Clear
11:53 PM 55.0 °F - 45.0 °F 69% 30.28 in 10.0 mi Calm Calm - N/A   Clear